Retour au catalogue

SL-12 DEB

ActifHEO
NORAD 27805·DEBRIS·🇷🇺 Russia

Lancé Jul 30, 1992 depuis Baikonur Cosmodrome

Loading…

Prochains Passages (prochaines 24 heures)

TLE

FraisSource: Space-Track

Époque: Sep 13, 2026, 03:50 UTC

1 27805U 92047L   26256.16037319  .00010823  00000-0  41319-2 0  9999
2 27805  65.1726  92.4892 4202720  45.7540 341.9710  6.87646323531062

Suivez SL-12 DEB en temps réel avec AllMySat

Download on the App Store